Flag for Netherlands Weather past 2 weeks in 's-Hertogenbosch, Netherlands

Now
48 °F

Fog.


Feels Like: 45 °F
Forecast: 49 / 56 °F
Wind: 8 mph from Southwest

Location: Volkel

Current Time: Oct 23, 2014 at 5:56:21 AM

Latest Report: Oct 23, 2014 at 5:25 AM


Visibility: 5 mi

Pressure: 30.15 "Hg

Humidity: 100%

Dew point: 48 °F

Location of 's-HertogenboschLocation

Historic Weather in 's-Hertogenbosch — Graph

°F

's-Hertogenbosch temperature yesterday

Maximum temperature yesterday: 55 °F (at 2:55 PM)
Minimum temperature yesterday: 45 °F (at 12:25 AM)
Average temperature yesterday: 49 °F

Past Weeks' High & Low Weather Summary

 TemperatureHumidityPressure
High73 °F (Oct 18, 2:55 PM)100% (Oct 8, 4:25 AM)30.18 "Hg (Oct 8, 4:25 AM)
Low41 °F (Oct 12, 7:25 AM)64% (Oct 13, 2:25 PM)29.45 "Hg (Oct 21, 2:59 PM)
Average57 °F88%29.82 "Hg
* Reported Oct 8 4:25 AM — Oct 23 4:55 AM, 's-Hertogenbosch, Weather by CustomWeather, © 2014

Note: Actual official high and low records may vary slightly from our data, if they occured in-between our weather recording intervals... More about our weather records

Advertising

's-Hertogenbosch weather history for previous 24 hours

 ConditionsComfort  
Time TempWeatherWind HumidityBarometerVisibility
4:55 AM
Oct 23
48 °FFog.7 mph100%30.15 "Hg4 mi
4:25 AM48 °FFog.5 mph100%30.18 "Hg3 mi
3:55 AM48 °FFog.3 mph100%30.18 "Hg3 mi
3:25 AM48 °FFog.5 mph94%30.18 "Hg3 mi
2:55 AM48 °FOvercast.5 mph94%30.18 "HgN/A
2:25 AM48 °FMostly cloudy.6 mph94%30.18 "HgN/A
1:55 AM46 °FMostly cloudy.7 mph93%30.18 "HgN/A
1:25 AM46 °FOvercast.6 mph93%30.18 "HgN/A
12:55 AM41 °FPartly cloudy.6 mph100%30.18 "HgN/A
12:25 AM43 °FPassing clouds.6 mph100%30.18 "HgN/A
11:55 PM
Oct 22
45 °FPassing clouds.5 mph93%30.18 "HgN/A
11:25 PM46 °FOvercast.6 mph93%30.18 "HgN/A
10:55 PM45 °FQuite cool.6 mph93%30.18 "HgN/A
10:25 PM50 °FOvercast.5 mph82%30.18 "HgN/A
9:55 PM50 °FOvercast.5 mph88%30.18 "HgN/A
9:25 PM50 °FOvercast.5 mph88%30.15 "HgN/A
8:55 PM50 °FMostly cloudy.7 mph88%30.15 "HgN/A
8:25 PM50 °FOvercast.6 mph88%30.15 "HgN/A
7:55 PM50 °FOvercast.5 mph88%30.15 "HgN/A
7:25 PM50 °FPartly sunny.6 mph82%30.12 "HgN/A
6:55 PM52 °FOvercast.7 mph77%30.12 "HgN/A
6:25 PM52 °FMostly cloudy.9 mph77%30.12 "HgN/A
5:55 PM52 °FPartly sunny.7 mph82%30.12 "HgN/A
5:25 PM52 °FCool.8 mph77%30.12 "HgN/A
4:55 PM52 °FOvercast.7 mph77%30.09 "HgN/A
4:25 PM52 °FMore clouds than sun.8 mph82%30.09 "HgN/A
3:55 PM55 °FBroken clouds.10 mph72%30.09 "HgN/A
3:25 PM54 °FOvercast.10 mph72%30.09 "HgN/A
2:55 PM55 °FScattered clouds.10 mph72%30.07 "HgN/A
2:25 PM54 °FCool.9 mph77%30.07 "HgN/A
1:55 PM52 °FBroken clouds.9 mph82%30.07 "HgN/A
1:25 PM52 °FBroken clouds.9 mph82%30.07 "HgN/A
12:55 PM50 °FPartly sunny.8 mph88%30.07 "HgN/A
12:25 PM50 °FRain showers. Broken clouds.8 mph88%30.07 "HgN/A
11:55 AM50 °FRain showers. Broken clouds.9 mph82%30.07 "HgN/A
11:25 AM50 °FPartly sunny.9 mph82%30.04 "HgN/A
10:55 AM48 °FLight rain. Partly sunny.8 mph87%30.04 "HgN/A
10:25 AM48 °FLight rain. Partly sunny.7 mph87%30.04 "HgN/A
9:55 AM46 °FPartly sunny.8 mph93%30.01 "HgN/A
9:25 AM46 °FDrizzle. Broken clouds.8 mph93%30.01 "HgN/A
8:55 AM46 °FPartly cloudy.7 mph93%30.01 "HgN/A
8:25 AM46 °FLight rain. Passing clouds.9 mph93%29.98 "HgN/A
7:55 AM45 °FPartly cloudy.7 mph93%29.98 "HgN/A
7:25 AM45 °FLight rain. Mostly cloudy.7 mph93%29.98 "HgN/A
6:55 AM45 °FSprinkles. Mostly cloudy.9 mph93%29.95 "HgN/A
6:25 AM46 °FPartly cloudy.10 mph82%29.95 "HgN/A
5:55 AM46 °FPassing clouds.12 mph82%29.92 "HgN/A
5:25 AM46 °FPartly cloudy.9 mph82%29.92 "HgN/A
Weather by CustomWeather, © 2014

See weather overviewHow to use our weather pages